[[{"header":{"parameterUnit":"m.s-1","parameterCategory":2,"la1":30.2991,"la2":30.254,"lo1":-89.0895,"lo2":-89.0444,"dy":0.0017,"dx":0.0017,"nx":28,"ny":28,"refTime":"2025-01-02T09:00:00:Z","depth":"0","parameterNumber":2,"parameterNumberName":"U-component_of_CURRENTS"},"data":[0,0,0,0,0,0,0,0,0,0,0,0,0,0,0,0,0,0,0,0,0,0,0,0,0,0,0,0,0,0,0,0,0,0,0,0,0,0,0,0,0,0,0,0,0,0,0,0,0,0,0,0,0,0,0,0,0,0,0.3364,0.3365,0,0.3412,0.3411,0.3411,0.337,0.3369,0.3368,0.3368,0.3345,0.3345,0.3345,0,0,0,0,0,0,0,0,0,0,0,0,0,0.3242,0.3244,0.3363,0.3365,0.3366,0.3412,0.3411,0.3411,0.337,0.3369,0.3368,0.3367,0.3345,0.3345,0.3345,0,0,0,0,0,0,0,0,0,0,0,0,0,0.3284,0.3244,0.3363,0.3359,0.336,0.3412,0.3411,0.3411,0.337,0.3369,0.3368,0.3367,0.3344,0.3345,0.3345,0.337,0,0,0.3345,0.3346,0,0,0,0,0,0,0,0,0.3281,0.3287,0.3358,0.3359,0.336,0.3392,0.3361,0.3397,0.3371,0.3356,0.3368,0.3366,0.3361,0.336,0.3359,0.3369,0.3368,0.3345,0.3346,0.3346,0.3346,0,0,0,0,0,0,0,0.3278,0.3285,0.3372,0.336,0.3361,0.3357,0.3361,0.3367,0.3356,0.3357,0.3357,0.3378,0.336,0.3358,0.3358,0.3367,0.3345,0.3346,0.3346,0.3346,0.3419,0.3421,0,0,0,0,0,0,0.3294,0.3282,0.3371,0.3375,0.3328,0.3361,0.3364,0.3375,0.3357,0.3357,0.3379,0.3376,0.3359,0.3358,0.3357,0.3408,0.3346,0.3346,0.3346,0.3417,0.3419,0.3421,0,0,0,0,0,0,0.3291,0.3301,0.3369,0.3338,0.3347,0.3365,0.3377,0.3377,0.3385,0.3377,0.3372,0.3389,0.3358,0.3356,0.3373,0.3405,0.3346,0.3346,0.3415,0.3418,0.342,0.3495,0,0,0,0,0,0,0.3287,0.3299,0.3309,0.3339,0.335,0.3409,0.338,0.3379,0.3404,0.34,0.3384,0.338,0.3357,0.3373,0.3374,0.3405,0.3346,0.3413,0.3416,0.3419,0.349,0.35,0.3508,0,0,0,0,0,0.3282,0.3301,0.3308,0.332,0.3363,0.3411,0.3416,0.3418,0.3406,0.3417,0.3407,0.3381,0.3395,0.3375,0.3375,0.3407,0.3411,0.3415,0.3419,0.3486,0.3498,0.3508,0,0,0,0,0,0,0.3251,0.3301,0.3309,0.334,0.3381,0.3408,0.3426,0.3432,0.3433,0.3424,0.3404,0.34,0.3426,0.3412,0.3391,0.3439,0.34,0.3404,0.3451,0.3462,0.3471,0.3471,0.3346,0,0,0,0,0,0.3255,0.3279,0.3329,0.3357,0.3381,0.3407,0.3427,0.3431,0.3445,0.3444,0.3435,0.3431,0.3444,0.3449,0.3448,0.3479,0.3492,0.35,0.3509,0.3517,0.3518,0.3566,0.358,0.3435,0.3435,0.3434,0,0,0.3252,0.3285,0.3298,0.3353,0.338,0.3421,0.3412,0.345,0.3478,0.3443,0.3464,0.3461,0.346,0.3487,0.3499,0.3479,0.3574,0.3522,0.3529,0.3526,0.3572,0.3586,0.3599,0.3437,0.3437,0.3436,0,0,0.3265,0.3291,0.3317,0.3355,0.3412,0.3435,0.3454,0.3489,0.3497,0.353,0.3513,0.3532,0.3543,0.355,0.3557,0.3621,0.3619,0.3625,0.3672,0.3719,0.3732,0.3742,0.3814,0.383,0.3631,0.3631,0.3631,0,0.3258,0.3302,0.3334,0.3374,0.341,0.3447,0.3485,0.3513,0.3544,0.3567,0.3543,0.3584,0.3575,0.3629,0.3644,0.3641,0.3675,0.3629,0.3731,0.3742,0.3752,0.3822,0.3839,0.3635,0.3635,0.3634,0.3634,0,0.3294,0.3332,0.3357,0.3417,0.3454,0.3499,0.355,0.3588,0.3605,0.3629,0.3679,0.3671,0.3697,0.3704,0.369,0.3763,0.377,0.3736,0.3702,0.3771,0.3841,0.3857,0.3641,0.364,0.3638,0.3637,0,0,0.3266,0.3362,0.3366,0.3405,0.348,0.3516,0.3583,0.3657,0.3708,0.3729,0.3791,0.3807,0.3805,0.3813,0.3806,0.384,0.3944,0.3821,0.3821,0.389,0.4079,0.4092,0.4111,0.3931,0.3933,0.3935,0.4113,0,0.3285,0.3357,0.3399,0.3471,0.3521,0.358,0.3638,0.3704,0.3756,0.3824,0.3847,0.3891,0.385,0.3868,0.39,0.3928,0.3985,0.39,0.4003,0.4007,0.4008,0.4129,0.394,0.4083,0.4129,0.4132,0.4134,0,0.3303,0.3355,0.3418,0.3515,0.3539,0.3582,0.369,0.3747,0.3856,0.3894,0.3952,0.3977,0.4045,0.3988,0.4089,0.404,0.4071,0.4087,0.4094,0.4085,0.4049,0.4015,0.4111,0.4015,0.4159,0.4157,0.4155,0,0.327,0.3368,0.3416,0.3448,0.3557,0.3599,0.3659,0.3765,0.3816,0.3946,0.3992,0.408,0.4123,0.4172,0.422,0.4165,0.4337,0.4263,0.4314,0.4316,0.4164,0.4148,0.4169,0.4347,0.4347,0.4347,0.4346,0,0.3274,0.3316,0.3407,0.3435,0.3494,0.3579,0.3648,0.3732,0.3845,0.3921,0.4013,0.4096,0.4168,0.4272,0.4291,0.4383,0.4406,0.436,0.4372,0.419,0.4175,0.4088,0.4033,0.4353,0.4352,0.435,0.4349,0,0.3227,0.3288,0.3349,0.3452,0.3477,0.3515,0.3614,0.3677,0.3793,0.3903,0.3949,0.413,0.4291,0.4379,0.4499,0.4481,0.4445,0.4583,0.4387,0.4373,0.4291,0.4247,0.4162,0.4034,0.4661,0.4663,0.4664,0,0.3211,0.3241,0.3323,0.3346,0.3388,0.3453,0.35,0.3624,0.3698,0.3925,0.3982,0.4199,0.4341,0.4553,0.4586,0.468,0.4528,0.4555,0.44,0.4304,0.4264,0.4093,0.3976,0.4242,0.424,0.4238,0.4237,0,0.3182,0.3204,0.3244,0.3282,0.3323,0.3366,0.3455,0.3499,0.3675,0.3782,0.3971,0.4115,0.4365,0.4412,0.4574,0.4589,0.4333,0.4522,0.4447,0.398,0.3765,0.364,0.4137,0.422,0.4222,0.4223,0.4224,0.4225,0.3142,0.3146,0.3186,0.3214,0.3252,0.3281,0.3282,0.34,0.3491,0.3648,0.3868,0.4003,0.4181,0.4383,0.4394,0.4303,0.4261,0.4153,0.4129,0.3983,0.3778,0.4277,0.4354,0.4356,0.4358,0.436,0.4361,0,0.3088,0.3099,0.3125,0.314,0.3136,0.3184,0.3247,0.3239,0.3304,0.3496,0.3637,0.3778,0.3883,0.4003,0.403,0.3902,0.3686,0.3814,0.3486,0.3404,0.3876,0.3775,0.3696,0.3696,0.3696,0.3696,0.3696,0.3697,0.3056,0.3047,0.3053,0.3014,0.3022,0.2971,0.2974,0.2988,0.3072,0.3154,0.322,0.3356,0.3629,0.3805,0.3723,0.3623,0.332,0.3198,0.3209,0.3512,0.3538,0.3564,0.3455,0.3311,0.331,0.2544,0.2539,0.2535]},{"header":{"parameterUnit":"m.s-1","parameterCategory":2,"la1":30.2991,"la2":30.254,"lo1":-89.0895,"lo2":-89.0444,"dy":0.0017,"dx":0.0017,"nx":28,"ny":28,"refTime":"2025-01-02T09:00:00:Z","depth":"0","parameterNumber":3,"parameterNumberName":"V-component_of_CURRENTS"},"data":[0,0,0,0,0,0,0,0,0,0,0,0,0,0,0,0,0,0,0,0,0,0,0,0,0,0,0,0,0,0,0,0,0,0,0,0,0,0,0,0,0,0,0,0,0,0,0,0,0,0,0,0,0,0,0,0,0,0,-0.0901,-0.0904,0,-0.0992,-0.0991,-0.099,-0.0953,-0.0953,-0.0952,-0.0952,-0.1046,-0.1048,-0.1051,0,0,0,0,0,0,0,0,0,0,0,0,0,-0.0739,-0.074,-0.0901,-0.0904,-0.0907,-0.0992,-0.0991,-0.099,-0.0953,-0.0953,-0.0952,-0.0952,-0.1045,-0.1048,-0.1051,0,0,0,0,0,0,0,0,0,0,0,0,0,-0.0797,-0.074,-0.09,-0.0914,-0.0917,-0.0992,-0.0991,-0.099,-0.0953,-0.0953,-0.0952,-0.0952,-0.1044,-0.1048,-0.1052,-0.1085,0,0,-0.1064,-0.1066,0,0,0,0,0,0,0,0,-0.0794,-0.08,-0.0909,-0.0913,-0.0918,-0.0979,-0.097,-0.1029,-0.0953,-0.0917,-0.0952,-0.0952,-0.1038,-0.1042,-0.103,-0.1089,-0.1093,-0.1065,-0.1067,-0.1069,-0.107,0,0,0,0,0,0,0,-0.079,-0.0797,-0.0915,-0.0913,-0.0918,-0.0933,-0.0937,-0.0979,-0.0962,-0.092,-0.0923,-0.0967,-0.1037,-0.1026,-0.1033,-0.1095,-0.1065,-0.1068,-0.1071,-0.1072,-0.1178,-0.1178,0,0,0,0,0,0,-0.0819,-0.0793,-0.0913,-0.092,-0.0877,-0.0937,-0.0941,-0.0942,-0.0962,-0.0971,-0.0967,-0.0965,-0.1019,-0.1028,-0.1036,-0.1063,-0.1069,-0.1073,-0.1075,-0.1178,-0.1178,-0.1178,0,0,0,0,0,0,-0.0814,-0.0827,-0.091,-0.0878,-0.0892,-0.0942,-0.0942,-0.0945,-0.0941,-0.1001,-0.1005,-0.0964,-0.1019,-0.103,-0.1064,-0.1067,-0.1075,-0.1078,-0.1177,-0.1178,-0.1178,-0.1126,0,0,0,0,0,0,-0.0808,-0.0823,-0.0817,-0.0879,-0.0896,-0.0926,-0.0945,-0.0948,-0.0979,-0.0976,-0.1001,-0.1008,-0.102,-0.1057,-0.1068,-0.1073,-0.1082,-0.1177,-0.1177,-0.1178,-0.1127,-0.1125,-0.1123,0,0,0,0,0,-0.0801,-0.0787,-0.0814,-0.083,-0.0889,-0.0927,-0.0931,-0.0955,-0.098,-0.0952,-0.0987,-0.1008,-0.1069,-0.1061,-0.1073,-0.1079,-0.1176,-0.1177,-0.1178,-0.1129,-0.1125,-0.1123,0,0,0,0,0,0,-0.0709,-0.0787,-0.0816,-0.0826,-0.0871,-0.0928,-0.0923,-0.0962,-0.0966,-0.0966,-0.1014,-0.1022,-0.1053,-0.1079,-0.1069,-0.1113,-0.1127,-0.113,-0.1085,-0.1083,-0.108,-0.1046,-0.1085,0,0,0,0,0,-0.0697,-0.0703,-0.0785,-0.0793,-0.0811,-0.0873,-0.0895,-0.0915,-0.0953,-0.0952,-0.0985,-0.1025,-0.1065,-0.1083,-0.111,-0.114,-0.115,-0.1153,-0.115,-0.1148,-0.113,-0.1151,-0.1148,-0.1181,-0.1181,-0.1181,0,0,-0.0677,-0.0719,-0.0727,-0.0776,-0.0807,-0.0819,-0.0875,-0.0899,-0.0919,-0.0968,-0.098,-0.1019,-0.1073,-0.1091,-0.1109,-0.1114,-0.1145,-0.1149,-0.1147,-0.1129,-0.1151,-0.1148,-0.1145,-0.1181,-0.1181,-0.1181,0,0,-0.0635,-0.0662,-0.0651,-0.0675,-0.0737,-0.0777,-0.0791,-0.0848,-0.0869,-0.0906,-0.095,-0.098,-0.1044,-0.1065,-0.1095,-0.1102,-0.1133,-0.113,-0.1088,-0.111,-0.1107,-0.1104,-0.1108,-0.1106,-0.1126,-0.1126,-0.1126,0,-0.0601,-0.0602,-0.0654,-0.0645,-0.0668,-0.0759,-0.075,-0.0793,-0.0856,-0.0881,-0.0897,-0.098,-0.1024,-0.1063,-0.1062,-0.1093,-0.111,-0.1093,-0.1104,-0.1102,-0.11,-0.1105,-0.1103,-0.1124,-0.1124,-0.1124,-0.1125,0,-0.0552,-0.055,-0.0542,-0.0562,-0.0583,-0.0588,-0.0673,-0.0702,-0.0763,-0.0813,-0.0862,-0.0911,-0.0954,-0.0987,-0.1031,-0.1051,-0.1068,-0.1098,-0.1104,-0.1093,-0.1099,-0.1099,-0.112,-0.1121,-0.1122,-0.1122,0,0,-0.0474,-0.0501,-0.0492,-0.0486,-0.0536,-0.0546,-0.0593,-0.0653,-0.067,-0.0744,-0.0757,-0.0844,-0.0875,-0.091,-0.0968,-0.0993,-0.1001,-0.104,-0.1042,-0.1029,-0.104,-0.097,-0.0963,-0.1041,-0.1041,-0.1041,-0.1048,0,-0.0414,-0.0376,-0.041,-0.0383,-0.0376,-0.0453,-0.0473,-0.0541,-0.0607,-0.0637,-0.0735,-0.0758,-0.0852,-0.0854,-0.0905,-0.0967,-0.0998,-0.0995,-0.1065,-0.1066,-0.0994,-0.0959,-0.0901,-0.0895,-0.1047,-0.1047,-0.1047,0,-0.0345,-0.0335,-0.0288,-0.0294,-0.0292,-0.0287,-0.0326,-0.0355,-0.0446,-0.0492,-0.0559,-0.063,-0.0692,-0.076,-0.0869,-0.0868,-0.0951,-0.1005,-0.1007,-0.0954,-0.0994,-0.0935,-0.0889,-0.1085,-0.1046,-0.1047,-0.1047,0,-0.0264,-0.0245,-0.0204,-0.0201,-0.0223,-0.0218,-0.0235,-0.0302,-0.0302,-0.0389,-0.0377,-0.0498,-0.0507,-0.0645,-0.0777,-0.0827,-0.0871,-0.0954,-0.0973,-0.0969,-0.0934,-0.0926,-0.1069,-0.1028,-0.1028,-0.1028,-0.1028,0,-0.0186,-0.0155,-0.0157,-0.0131,-0.0072,-0.0118,-0.007,-0.012,-0.0139,-0.0084,-0.0276,-0.0239,-0.0478,-0.0546,-0.0713,-0.0806,-0.0825,-0.094,-0.0957,-0.0914,-0.0905,-0.1086,-0.1217,-0.1028,-0.1028,-0.1028,-0.1028,0,-0.0115,-0.0111,-0.0064,-0.0051,-0.0031,0.0011,0.0054,0.0093,0.0046,0.0119,0.0109,-0.0023,-0.0095,-0.0315,-0.049,-0.0667,-0.0881,-0.0834,-0.0752,-0.0759,-0.0971,-0.1099,-0.123,-0.1302,-0.0864,-0.0862,-0.0861,0,-0.0085,-0.005,0.0014,0.0077,0.0092,0.0149,0.0208,0.0185,0.0247,0.0284,0.0351,0.0285,0.0293,0.004,-0.0263,-0.0512,-0.0759,-0.0673,-0.0764,-0.0944,-0.1103,-0.121,-0.127,-0.0711,-0.0708,-0.0706,-0.0704,0,-0.0028,0.0006,0.0061,0.0192,0.0278,0.0364,0.0451,0.0537,0.0563,0.0657,0.0796,0.0819,0.0577,0.0362,-0.0022,-0.0239,-0.0788,-0.0634,-0.0857,-0.1004,-0.1095,-0.1183,-0.0746,-0.0685,-0.0687,-0.0688,-0.0689,-0.069,0.0028,0.0092,0.0196,0.0324,0.0435,0.0588,0.0696,0.0828,0.1004,0.121,0.1191,0.1304,0.0887,0.0393,0.0062,-0.0549,-0.0608,-0.0768,-0.091,-0.1002,-0.1065,-0.0558,-0.0493,-0.0494,-0.0495,-0.0496,-0.0496,0,0.0118,0.0202,0.0324,0.0494,0.0647,0.0674,0.0875,0.1019,0.1293,0.1514,0.1688,0.1584,0.1086,0.0487,-0.0326,-0.0762,-0.0975,-0.1036,-0.1222,-0.1275,-0.0847,-0.0833,-0.0794,-0.0794,-0.0794,-0.0794,-0.0793,-0.0793,0.0176,0.0322,0.0392,0.0659,0.0783,0.0998,0.1131,0.1372,0.1567,0.1896,0.2012,0.2043,0.1551,0.009,-0.0912,-0.1149,-0.151,-0.1551,-0.1744,-0.1515,-0.1503,-0.1492,-0.1512,-0.1615,-0.1617,-0.2103,-0.2108,-0.2112]}],[{"header":{"parameterUnit":"m.s-1","parameterCategory":2,"la1":30.2991,"la2":30.254,"lo1":-89.0895,"lo2":-89.0444,"dy":0.0017,"dx":0.0017,"nx":28,"ny":28,"refTime":"2025-01-02T09:00:00:Z","depth":"2","parameterNumber":2,"parameterNumberName":"U-component_of_CURRENTS"},"data":[0,0,0,0,0,0,0,0,0,0,0,0,0,0,0,0,0,0,0,0,0,0,0,0,0,0,0,0,0,0,0,0,0,0,0,0,0,0,0,0,0,0,0,0,0,0,0,0,0,0,0,0,0,0,0,0,0,0,0.2706,0.2707,0,0.2767,0.2768,0.2769,0.2786,0.2786,0.2786,0.2785,0.2773,0.2773,0.2773,0,0,0,0,0,0,0,0,0,0,0,0,0,0.2637,0.2638,0.2706,0.2707,0.2708,0.2767,0.2768,0.2769,0.2786,0.2786,0.2786,0.2785,0.2773,0.2773,0.2773,0,0,0,0,0,0,0,0,0,0,0,0,0,0.268,0.2639,0.2706,0.2724,0.2726,0.2767,0.2768,0.2769,0.2786,0.2786,0.2785,0.2785,0.2773,0.2773,0.2773,0.2782,0,0,0.2773,0.2773,0,0,0,0,0,0,0,0,0.2677,0.2682,0.272,0.2722,0.2725,0.2769,0.2739,0.277,0.2787,0.2763,0.2785,0.2785,0.2765,0.2766,0.2779,0.2782,0.2781,0.2773,0.2773,0.2772,0.2772,0,0,0,0,0,0,0,0.2674,0.268,0.273,0.2721,0.2724,0.274,0.2745,0.2746,0.2765,0.2765,0.2767,0.2774,0.2766,0.2779,0.2779,0.2781,0.2773,0.2772,0.2772,0.2772,0.2884,0.2886,0,0,0,0,0,0,0.2666,0.2677,0.2728,0.2732,0.2699,0.2741,0.2747,0.2755,0.2766,0.2768,0.2774,0.2774,0.278,0.2779,0.2778,0.2842,0.2772,0.2772,0.2772,0.2881,0.2884,0.2887,0,0,0,0,0,0,0.2664,0.267,0.2726,0.2706,0.2714,0.2743,0.2752,0.2757,0.2773,0.2774,0.2774,0.2786,0.2779,0.2778,0.2811,0.2839,0.2772,0.2772,0.2877,0.2882,0.2886,0.2935,0,0,0,0,0,0,0.2662,0.2669,0.2681,0.2705,0.2715,0.2756,0.2753,0.2758,0.2778,0.2779,0.2784,0.2783,0.2779,0.2812,0.2811,0.2838,0.2772,0.2873,0.2879,0.2884,0.293,0.2941,0.295,0,0,0,0,0,0.2659,0.2678,0.2681,0.2688,0.2727,0.2756,0.2763,0.2782,0.2779,0.2793,0.2815,0.2783,0.2847,0.2814,0.2813,0.284,0.2871,0.2877,0.2884,0.2925,0.2939,0.295,0,0,0,0,0,0,0.2661,0.2683,0.2686,0.2712,0.2733,0.2759,0.2781,0.2785,0.2813,0.2822,0.2812,0.2813,0.2851,0.285,0.2814,0.2896,0.2857,0.2864,0.2889,0.2901,0.2911,0.2938,0.2772,0,0,0,0,0,0.2664,0.2673,0.2702,0.2718,0.2737,0.2758,0.2774,0.2789,0.2813,0.2825,0.2838,0.2861,0.288,0.2892,0.291,0.2948,0.296,0.2972,0.2982,0.299,0.3017,0.3058,0.3074,0.2909,0.2909,0.2909,0,0,0.2664,0.2679,0.2683,0.2717,0.2739,0.2774,0.2767,0.2802,0.2837,0.2819,0.2879,0.2888,0.2898,0.2949,0.2966,0.2949,0.3048,0.2999,0.3005,0.3028,0.3067,0.3082,0.3096,0.2914,0.2913,0.2912,0,0,0.2674,0.269,0.2709,0.2739,0.2779,0.2791,0.28,0.2845,0.2876,0.293,0.2931,0.2968,0.3,0.3024,0.3034,0.3113,0.3094,0.3118,0.3192,0.3231,0.3244,0.3256,0.3296,0.3311,0.3129,0.3129,0.3129,0,0.2672,0.2704,0.2719,0.276,0.2794,0.2798,0.2844,0.2874,0.2925,0.2964,0.296,0.3046,0.3041,0.3103,0.3143,0.3132,0.3158,0.3132,0.3241,0.3253,0.3264,0.3303,0.3318,0.3132,0.3132,0.3131,0.3131,0,0.2704,0.2741,0.2761,0.2805,0.2845,0.288,0.293,0.2964,0.2995,0.3037,0.312,0.3143,0.3195,0.32,0.3196,0.328,0.3274,0.3237,0.32,0.3283,0.3319,0.3335,0.3137,0.3135,0.3135,0.3134,0,0,0.2666,0.2759,0.2768,0.2808,0.2878,0.2907,0.2972,0.3037,0.3077,0.3151,0.3237,0.3285,0.3312,0.3329,0.333,0.3375,0.3465,0.3356,0.3357,0.338,0.3568,0.3495,0.3504,0.3447,0.345,0.3452,0.3562,0,0.2682,0.2781,0.281,0.2883,0.2951,0.2978,0.3027,0.3094,0.3153,0.3237,0.3302,0.3382,0.3356,0.3396,0.3437,0.3456,0.351,0.344,0.35,0.3503,0.3412,0.352,0.3261,0.3331,0.3577,0.3579,0.3581,0,0.27,0.278,0.2865,0.2955,0.2978,0.3002,0.3086,0.3131,0.3243,0.3309,0.3411,0.3467,0.3571,0.3532,0.3623,0.3583,0.3599,0.3609,0.3612,0.354,0.3458,0.329,0.3349,0.3606,0.3604,0.3602,0.3601,0,0.2699,0.2803,0.2865,0.2901,0.2996,0.3024,0.3068,0.3164,0.321,0.338,0.3447,0.3572,0.3642,0.3693,0.3717,0.369,0.3807,0.3754,0.3709,0.3703,0.3495,0.3465,0.3837,0.3837,0.3837,0.3837,0.3836,0,0.2692,0.2751,0.2863,0.2906,0.2968,0.3041,0.3081,0.3164,0.3267,0.3343,0.3483,0.3562,0.3688,0.376,0.3774,0.3792,0.3848,0.376,0.3739,0.3506,0.3478,0.3718,0.3703,0.3841,0.384,0.3839,0.3838,0,0.2637,0.2719,0.2789,0.291,0.2965,0.2994,0.3085,0.3101,0.3229,0.3342,0.3415,0.3586,0.3694,0.378,0.3876,0.3846,0.3879,0.3867,0.3594,0.354,0.3743,0.3729,0.3855,0.3853,0.3852,0.3851,0.385,0,0.2642,0.2665,0.2781,0.2816,0.2854,0.2925,0.2964,0.3091,0.3132,0.3329,0.3385,0.356,0.3646,0.376,0.3785,0.3833,0.3869,0.3597,0.3496,0.3784,0.3752,0.374,0.3728,0.3243,0.3237,0.3233,0.3229,0,0.2623,0.2604,0.2632,0.2735,0.278,0.2812,0.2911,0.294,0.3078,0.3161,0.3282,0.3377,0.3552,0.3498,0.359,0.3568,0.3573,0.3503,0.3885,0.3275,0.3215,0.318,0.3187,0.3187,0.3191,0.3194,0.3197,0.3198,0.2554,0.2556,0.2583,0.2613,0.2676,0.2704,0.2685,0.2771,0.2815,0.2925,0.309,0.3139,0.3257,0.3261,0.3191,0.3162,0.3397,0.325,0.3261,0.3278,0.3184,0.3124,0.3063,0.3066,0.3069,0.3072,0.3074,0,0.2486,0.2505,0.2514,0.2536,0.2508,0.2604,0.2639,0.257,0.257,0.2725,0.2798,0.2654,0.2669,0.2769,0.2683,0.2718,0.2661,0.2596,0.2492,0.2539,0.2579,0.2443,0.2129,0.2126,0.2122,0.2119,0,0,0.2464,0.2442,0.2422,0.237,0.2386,0.233,0.231,0.2258,0.2309,0.2275,0.2303,0.255,0.2705,0.237,0.236,0.2222,0.2345,0.2141,0.2913,0.2838,0.2873,0.299,0.2841,0,0,0,0,0]},{"header":{"parameterUnit":"m.s-1","parameterCategory":2,"la1":30.2991,"la2":30.254,"lo1":-89.0895,"lo2":-89.0444,"dy":0.0017,"dx":0.0017,"nx":28,"ny":28,"refTime":"2025-01-02T09:00:00:Z","depth":"2","parameterNumber":3,"parameterNumberName":"V-component_of_CURRENTS"},"data":[0,0,0,0,0,0,0,0,0,0,0,0,0,0,0,0,0,0,0,0,0,0,0,0,0,0,0,0,0,0,0,0,0,0,0,0,0,0,0,0,0,0,0,0,0,0,0,0,0,0,0,0,0,0,0,0,0,0,0.021,0.0211,0,0.0122,0.0119,0.0116,-0.0026,-0.0027,-0.0027,-0.0027,-0.0117,-0.012,-0.0122,0,0,0,0,0,0,0,0,0,0,0,0,0,0.0147,0.0148,0.021,0.0211,0.0212,0.0123,0.0119,0.0115,-0.0026,-0.0027,-0.0027,-0.0027,-0.0117,-0.0119,-0.0122,0,0,0,0,0,0,0,0,0,0,0,0,0,0.0105,0.0148,0.021,0.0149,0.0145,0.0123,0.0119,0.0114,-0.0026,-0.0027,-0.0027,-0.0028,-0.0116,-0.0119,-0.0122,-0.0133,0,0,-0.0132,-0.0133,0,0,0,0,0,0,0,0,0.0108,0.0104,0.0157,0.0154,0.0149,0.008,0.0065,0.004,-0.0026,0.0012,-0.0027,-0.0028,-0.0035,-0.0045,-0.0096,-0.0137,-0.0141,-0.0132,-0.0134,-0.0135,-0.0136,0,0,0,0,0,0,0,0.0111,0.0107,0.0149,0.0159,0.0154,0.0092,0.0083,0.0057,-0.0027,0.0009,0.0005,0.0035,-0.0041,-0.0093,-0.0098,-0.0142,-0.0132,-0.0135,-0.0137,-0.0138,-0.0249,-0.025,0,0,0,0,0,0,0.0179,0.0111,0.0153,0.0149,0.0155,0.0096,0.0085,0.0082,-0.0027,-0.0037,0.0036,0.0029,-0.0087,-0.0095,-0.0102,-0.0119,-0.0135,-0.0138,-0.014,-0.0248,-0.0249,-0.025,0,0,0,0,0,0,0.0177,0.0182,0.0157,0.015,0.0145,0.0101,0.0097,0.0081,0.0031,-0.0002,-0.0018,0.0006,-0.0088,-0.0097,-0.0127,-0.0122,-0.014,-0.0143,-0.0246,-0.0248,-0.0249,-0.0152,0,0,0,0,0,0,0.0174,0.018,0.0176,0.0154,0.015,0.0138,0.0099,0.0081,0.0064,0.0053,-0.0032,-0.0042,-0.0089,-0.0122,-0.0131,-0.0127,-0.0145,-0.0245,-0.0247,-0.0249,-0.0153,-0.015,-0.0146,0,0,0,0,0,0.0172,0.0189,0.0175,0.0181,0.0152,0.0141,0.0128,0.0079,0.0064,0.003,-0.0015,-0.0039,-0.0142,-0.0125,-0.0135,-0.0132,-0.0244,-0.0247,-0.0249,-0.0155,-0.015,-0.0146,0,0,0,0,0,0,0.0157,0.0178,0.0162,0.0181,0.0163,0.0126,0.0116,0.0089,0.002,0.0013,-0.0039,-0.0052,-0.0078,-0.0124,-0.0104,-0.0177,-0.0202,-0.0206,-0.0128,-0.0124,-0.012,-0.0111,-0.0148,0,0,0,0,0,0.0162,0.0175,0.0176,0.0188,0.0188,0.0149,0.0137,0.0105,0.007,0.0035,-0.0015,-0.0068,-0.0098,-0.0122,-0.0167,-0.0195,-0.0226,-0.0209,-0.0205,-0.0202,-0.0205,-0.0229,-0.0226,-0.0258,-0.0258,-0.0258,0,0,0.017,0.0183,0.0191,0.0186,0.0166,0.0177,0.0131,0.0123,0.0121,0.0045,0.0006,-0.0047,-0.0101,-0.0139,-0.0157,-0.0174,-0.0211,-0.0205,-0.02,-0.0207,-0.0231,-0.0227,-0.0224,-0.0259,-0.0259,-0.0259,0,0,0.0205,0.0194,0.0216,0.0204,0.0205,0.0192,0.0202,0.0158,0.0118,0.0094,0.0039,-0.0011,-0.0067,-0.0119,-0.0141,-0.0144,-0.0181,-0.0166,-0.0145,-0.0166,-0.0162,-0.016,-0.019,-0.0191,-0.0174,-0.0174,-0.0174,0,0.0212,0.0237,0.0217,0.0231,0.0245,0.0215,0.0235,0.0202,0.0147,0.0135,0.0098,-0.0003,-0.0054,-0.0084,-0.0106,-0.0131,-0.0156,-0.0144,-0.0156,-0.0154,-0.0153,-0.0185,-0.0187,-0.0169,-0.017,-0.017,-0.0171,0,0.026,0.0273,0.0291,0.0306,0.0301,0.0317,0.0303,0.0288,0.0263,0.0223,0.0171,0.0073,0.0012,-0.0021,-0.0063,-0.0094,-0.0117,-0.0132,-0.0152,-0.0143,-0.0179,-0.0183,-0.0163,-0.0165,-0.0166,-0.0167,0,0,0.0301,0.0324,0.0326,0.0346,0.0342,0.0355,0.0377,0.0383,0.0409,0.0311,0.0302,0.0202,0.0122,0.0086,0.0003,-0.0045,-0.0066,-0.0093,-0.0096,-0.0098,-0.012,-0.0136,-0.0142,-0.0074,-0.0074,-0.0075,-0.0145,0,0.0346,0.0397,0.0391,0.0446,0.0476,0.0464,0.0488,0.048,0.0461,0.0437,0.0323,0.0271,0.0174,0.0126,0.0067,-0.0032,-0.0074,-0.0047,-0.0153,-0.0157,-0.015,-0.0146,-0.0125,-0.0186,-0.0149,-0.015,-0.015,0,0.0393,0.0426,0.0491,0.0529,0.0541,0.0564,0.0618,0.063,0.0602,0.0567,0.0489,0.0398,0.0284,0.0205,0.0051,0.0074,-0.0018,-0.0098,-0.0102,-0.0155,-0.018,-0.0195,-0.0195,-0.0157,-0.0157,-0.0156,-0.0156,0,0.0441,0.0493,0.056,0.0572,0.0617,0.0643,0.0656,0.0661,0.0688,0.063,0.0641,0.0486,0.0414,0.0275,0.0096,0.0077,-0.0059,-0.0093,-0.0193,-0.0195,-0.022,-0.0224,-0.018,-0.018,-0.018,-0.018,-0.0179,0,0.0502,0.0543,0.0592,0.0624,0.07,0.0691,0.0764,0.076,0.0763,0.0808,0.069,0.0685,0.0431,0.0324,0.0146,-0.0033,-0.0011,-0.0191,-0.0212,-0.0188,-0.0188,-0.0202,-0.0203,-0.0182,-0.0182,-0.0181,-0.0181,0,0.0551,0.0579,0.0661,0.0717,0.0728,0.078,0.0823,0.0888,0.0881,0.0939,0.0919,0.0823,0.0676,0.0448,0.0213,0.0055,-0.0129,-0.019,-0.0155,-0.0172,-0.0269,-0.0265,-0.032,-0.0321,-0.0322,-0.0323,-0.0323,0,0.0572,0.0637,0.0728,0.078,0.0805,0.0871,0.0925,0.0928,0.0995,0.1041,0.1075,0.0958,0.0894,0.055,0.0224,-0.0078,-0.0115,-0.0243,-0.0284,-0.0267,-0.0283,-0.0277,-0.0272,-0.0284,-0.0284,-0.0284,-0.0285,0,0.0639,0.0692,0.0766,0.0863,0.0932,0.1032,0.1088,0.1158,0.1204,0.1257,0.1305,0.1258,0.0944,0.0621,0.0209,0.0005,-0.0204,-0.0257,-0.0234,-0.0247,-0.0238,-0.0251,-0.0247,-0.0287,-0.0287,-0.0286,-0.0286,-0.0286,0.0696,0.0754,0.0855,0.0957,0.1045,0.1168,0.125,0.1336,0.144,0.1523,0.1466,0.141,0.1059,0.052,0.0164,-0.0215,-0.0204,-0.034,-0.0337,-0.0335,-0.0313,-0.0305,-0.0364,-0.0364,-0.0364,-0.0364,-0.0365,0,0.0764,0.0815,0.0925,0.105,0.1169,0.1198,0.1358,0.145,0.158,0.1629,0.164,0.1321,0.0971,0.0579,0.002,-0.0309,-0.0339,-0.0413,-0.0379,-0.0374,-0.0371,-0.0351,-0.0412,-0.0413,-0.0414,-0.0415,0,0,0.079,0.0891,0.0949,0.1134,0.1226,0.1384,0.1488,0.1606,0.1674,0.1712,0.1666,0.1569,0.1095,0.0688,0.0229,-0.0092,-0.0156,-0.0156,-0.0084,0.0015,0.0022,-0.0296,-0.0256,0,0,0,0,0]}],[{"header":{"parameterUnit":"m.s-1","parameterCategory":2,"la1":30.2991,"la2":30.254,"lo1":-89.0895,"lo2":-89.0444,"dy":0.0017,"dx":0.0017,"nx":28,"ny":28,"refTime":"2025-01-02T09:00:00:Z","depth":"4","parameterNumber":2,"parameterNumberName":"U-component_of_CURRENTS"},"data":[0,0,0,0,0,0,0,0,0,0,0,0,0,0,0,0,0,0,0,0,0,0,0,0,0,0,0,0,0,0,0,0,0,0,0,0,0,0,0,0,0,0,0,0,0,0,0,0,0,0,0,0,0,0,0,0,0,0,0.1438,0.1439,0,0.1525,0.1526,0.1527,0.158,0.158,0.158,0.1581,0.1672,0.1674,0.1676,0,0,0,0,0,0,0,0,0,0,0,0,0,0.1342,0.1343,0.1438,0.1439,0.144,0.1525,0.1526,0.1527,0.158,0.158,0.1581,0.1581,0.1671,0.1674,0.1676,0,0,0,0,0,0,0,0,0,0,0,0,0,0.1401,0.1343,0.1438,0.1477,0.1482,0.1525,0.1526,0.1528,0.158,0.158,0.1581,0.1581,0.167,0.1673,0.1676,0.1686,0,0,0.1686,0.1688,0,0,0,0,0,0,0,0,0.1397,0.1404,0.147,0.1475,0.148,0.1543,0.1526,0.1581,0.158,0.1542,0.1581,0.1581,0.1629,0.1636,0.165,0.169,0.1694,0.1686,0.1688,0.169,0.1691,0,0,0,0,0,0,0,0.1393,0.1401,0.1472,0.1471,0.1477,0.15,0.1508,0.1537,0.1581,0.1545,0.1549,0.156,0.1632,0.1647,0.1652,0.1696,0.1686,0.1689,0.1691,0.1692,0.1839,0.1841,0,0,0,0,0,0,0.1383,0.1397,0.1469,0.1474,0.144,0.1501,0.151,0.1521,0.1581,0.159,0.156,0.1562,0.1641,0.1649,0.1656,0.176,0.169,0.1693,0.1694,0.1837,0.1839,0.1841,0,0,0,0,0,0,0.138,0.1388,0.1465,0.1438,0.145,0.1502,0.1514,0.1523,0.1568,0.1592,0.1602,0.1599,0.1642,0.1651,0.1711,0.176,0.1694,0.1697,0.1834,0.1838,0.184,0.191,0,0,0,0,0,0,0.1377,0.1387,0.1411,0.1437,0.1451,0.1507,0.1514,0.1524,0.1573,0.1578,0.1628,0.1636,0.1643,0.1706,0.1714,0.1763,0.1699,0.1832,0.1836,0.1839,0.1905,0.1915,0.1923,0,0,0,0,0,0.1373,0.1398,0.1411,0.1421,0.1476,0.1508,0.1517,0.1554,0.1574,0.1597,0.1637,0.1636,0.1735,0.171,0.1719,0.177,0.183,0.1835,0.1839,0.1901,0.1913,0.1923,0,0,0,0,0,0,0.1372,0.1407,0.1422,0.1458,0.1488,0.1517,0.1553,0.1572,0.1623,0.164,0.1659,0.167,0.1738,0.1744,0.1716,0.1823,0.1784,0.179,0.1828,0.1839,0.1848,0.1832,0.1702,0,0,0,0,0,0.138,0.141,0.1439,0.1472,0.1491,0.1528,0.1555,0.1576,0.1614,0.1639,0.1675,0.1718,0.1758,0.1791,0.1819,0.1881,0.1884,0.192,0.1929,0.1937,0.1931,0.1977,0.199,0.1856,0.1856,0.1856,0,0,0.1384,0.1414,0.1428,0.1475,0.1507,0.1538,0.1546,0.1593,0.1628,0.164,0.1716,0.1748,0.1779,0.1846,0.1879,0.1864,0.1982,0.1943,0.1949,0.1938,0.1983,0.1996,0.2008,0.1859,0.1859,0.1858,0,0,0.1398,0.1439,0.1464,0.1491,0.1543,0.157,0.1588,0.1635,0.1672,0.174,0.1758,0.1818,0.1889,0.1917,0.1941,0.2018,0.2022,0.204,0.2085,0.2132,0.2143,0.2153,0.2192,0.2205,0.2054,0.2054,0.2054,0,0.1404,0.1441,0.1477,0.1507,0.1539,0.1586,0.1617,0.1658,0.1721,0.1756,0.1775,0.1892,0.192,0.1994,0.2026,0.2038,0.2064,0.2042,0.2143,0.2153,0.2161,0.2199,0.2212,0.2058,0.2057,0.2057,0.2056,0,0.1423,0.1464,0.1486,0.1541,0.158,0.1619,0.167,0.1725,0.1786,0.1823,0.192,0.1969,0.2037,0.2067,0.2076,0.2159,0.2158,0.2142,0.2112,0.2179,0.2215,0.2227,0.2063,0.2062,0.2061,0.206,0,0,0.1406,0.1482,0.1495,0.1524,0.1604,0.1632,0.1708,0.178,0.1839,0.1916,0.1996,0.2079,0.2113,0.214,0.217,0.2218,0.2312,0.2218,0.2218,0.2251,0.2424,0.2293,0.2293,0.2324,0.2326,0.2328,0.2431,0,0.1415,0.1461,0.1514,0.1577,0.16,0.1678,0.1749,0.1821,0.1898,0.1987,0.2053,0.214,0.214,0.2198,0.2245,0.2301,0.2345,0.2285,0.2359,0.2361,0.223,0.2303,0.2334,0.244,0.2443,0.2445,0.2446,0,0.1415,0.1448,0.1496,0.1591,0.1618,0.1674,0.1797,0.1869,0.1988,0.2054,0.2142,0.2194,0.2295,0.228,0.2399,0.2369,0.2398,0.2427,0.2432,0.2285,0.225,0.2356,0.2468,0.2466,0.2464,0.2463,0.2462,0,0.1362,0.1444,0.1485,0.1511,0.162,0.1681,0.1767,0.1888,0.1969,0.2102,0.2174,0.2279,0.2363,0.2418,0.2486,0.2461,0.2603,0.257,0.2471,0.2462,0.2517,0.2505,0.2629,0.2629,0.2629,0.2628,0.2628,0,0.1339,0.1378,0.1465,0.1484,0.1562,0.1659,0.1777,0.1869,0.2017,0.2113,0.2209,0.2288,0.2405,0.2493,0.2524,0.2543,0.2636,0.2484,0.2481,0.2547,0.2538,0.2527,0.2514,0.2632,0.2631,0.2631,0.263,0,0.1272,0.1331,0.1381,0.1493,0.1535,0.1597,0.1782,0.1859,0.201,0.2139,0.219,0.2337,0.245,0.254,0.2649,0.2586,0.2621,0.2595,0.2681,0.268,0.2438,0.2428,0.249,0.2486,0.2483,0.248,0.2478,0,0.1226,0.1239,0.136,0.1401,0.146,0.1572,0.1652,0.1832,0.1913,0.2147,0.2187,0.2353,0.2433,0.2483,0.2578,0.2631,0.2595,0.2585,0.2479,0.2433,0.2426,0.242,0.2414,0.2473,0.2472,0.2471,0.247,0,0.1135,0.1201,0.1259,0.1337,0.1418,0.1499,0.1626,0.1676,0.1888,0.2036,0.2143,0.2215,0.2333,0.2406,0.2468,0.2492,0.2578,0.255,0.2556,0.2456,0.2414,0.2408,0.2406,0.2459,0.2461,0.2462,0.2463,0,0.1087,0.1103,0.1195,0.1268,0.136,0.1403,0.1484,0.1591,0.1702,0.1951,0.1984,0.2163,0.2315,0.2336,0.2396,0.2415,0.2368,0.2274,0.2293,0.2306,0.2197,0.2113,0.2071,0,0,0,0,0,0.1024,0.105,0.1108,0.1186,0.1279,0.1327,0.1458,0.1544,0.1734,0.1765,0.1879,0.1983,0.2084,0.2167,0.2152,0.2308,0.2369,0.2277,0.2267,0.2398,0.2411,0.2298,0,0,0,0,0,0,0.0988,0.1045,0.1078,0.1113,0.1145,0.1222,0.1296,0.1417,0.1445,0.1644,0.1706,0.1861,0.1979,0.2079,0.2112,0.2141,0.2094,0.2394,0.2389,0.2391,0.2402,0.2413,0.2301,0,0,0,0,0]},{"header":{"parameterUnit":"m.s-1","parameterCategory":2,"la1":30.2991,"la2":30.254,"lo1":-89.0895,"lo2":-89.0444,"dy":0.0017,"dx":0.0017,"nx":28,"ny":28,"refTime":"2025-01-02T09:00:00:Z","depth":"4","parameterNumber":3,"parameterNumberName":"V-component_of_CURRENTS"},"data":[0,0,0,0,0,0,0,0,0,0,0,0,0,0,0,0,0,0,0,0,0,0,0,0,0,0,0,0,0,0,0,0,0,0,0,0,0,0,0,0,0,0,0,0,0,0,0,0,0,0,0,0,0,0,0,0,0,0,0.0366,0.0366,0,0.0341,0.0341,0.034,0.0298,0.0297,0.0297,0.0296,0.0225,0.0224,0.0222,0,0,0,0,0,0,0,0,0,0,0,0,0,0.0352,0.0353,0.0366,0.0366,0.0366,0.0341,0.0341,0.034,0.0298,0.0297,0.0297,0.0296,0.0226,0.0224,0.0222,0,0,0,0,0,0,0,0,0,0,0,0,0,0.0342,0.0353,0.0366,0.0345,0.0343,0.0341,0.0341,0.034,0.0298,0.0297,0.0296,0.0296,0.0226,0.0224,0.0222,0.0221,0,0,0.0215,0.0214,0,0,0,0,0,0,0,0,0.0343,0.0342,0.0348,0.0346,0.0344,0.0325,0.031,0.0299,0.0298,0.0311,0.0296,0.0296,0.0257,0.0253,0.0244,0.0217,0.0214,0.0215,0.0213,0.0212,0.0212,0,0,0,0,0,0,0,0.0344,0.0343,0.0352,0.0348,0.0346,0.0329,0.0326,0.0307,0.0284,0.0309,0.0307,0.0311,0.0255,0.0247,0.0242,0.0213,0.0215,0.0213,0.0211,0.021,0.0187,0.0188,0,0,0,0,0,0,0.0357,0.0344,0.0353,0.0352,0.0347,0.033,0.0327,0.0329,0.0285,0.0279,0.0312,0.0309,0.0251,0.0245,0.0239,0.0243,0.0212,0.021,0.0209,0.0187,0.0187,0.0188,0,0,0,0,0,0,0.0357,0.0358,0.0354,0.035,0.0349,0.0332,0.0333,0.0329,0.0322,0.0288,0.028,0.0311,0.025,0.0243,0.023,0.0239,0.0209,0.0207,0.0186,0.0187,0.0188,0.0245,0,0,0,0,0,0,0.0356,0.0358,0.0362,0.0351,0.035,0.0358,0.0334,0.0329,0.0328,0.0324,0.0285,0.0278,0.0249,0.0234,0.0228,0.0236,0.0205,0.0185,0.0186,0.0187,0.0242,0.0248,0.0252,0,0,0,0,0,0.0356,0.0367,0.0362,0.0364,0.0357,0.0359,0.0356,0.0338,0.0328,0.0329,0.0306,0.0279,0.0238,0.0233,0.0225,0.0233,0.0184,0.0186,0.0187,0.0239,0.0246,0.0252,0,0,0,0,0,0,0.0363,0.0364,0.0358,0.0369,0.0367,0.0353,0.0358,0.0346,0.0328,0.0329,0.0288,0.0279,0.027,0.0248,0.0243,0.0231,0.0207,0.0207,0.0249,0.0255,0.026,0.0271,0.0204,0,0,0,0,0,0.0369,0.0377,0.0374,0.0383,0.0388,0.0374,0.0373,0.0365,0.0352,0.0343,0.0315,0.029,0.0272,0.0261,0.0239,0.0236,0.0197,0.0236,0.0242,0.0246,0.0251,0.0202,0.0203,0.0194,0.0194,0.0194,0,0,0.0376,0.0378,0.0382,0.0386,0.0384,0.0397,0.0371,0.0381,0.0391,0.0339,0.0339,0.0307,0.0275,0.0268,0.0262,0.025,0.0229,0.0248,0.0252,0.0255,0.0204,0.0204,0.0205,0.0195,0.0195,0.0194,0,0,0.0399,0.0397,0.0414,0.0416,0.0425,0.0419,0.0426,0.0417,0.0414,0.0415,0.0378,0.0351,0.033,0.03,0.0285,0.0308,0.0257,0.0306,0.0341,0.0294,0.0294,0.0293,0.0243,0.0238,0.031,0.031,0.031,0,0.0406,0.0427,0.0419,0.0437,0.045,0.0434,0.0459,0.0455,0.044,0.0441,0.0425,0.0379,0.0344,0.0329,0.0335,0.0318,0.0285,0.0319,0.03,0.0298,0.0297,0.0245,0.0239,0.0313,0.0312,0.0312,0.0312,0,0.0439,0.046,0.0473,0.0491,0.0501,0.0521,0.0523,0.0524,0.0519,0.0508,0.0495,0.0445,0.0416,0.0399,0.0375,0.0352,0.0329,0.031,0.0282,0.0301,0.0246,0.0238,0.0317,0.0316,0.0315,0.0314,0,0,0.045,0.049,0.0496,0.0522,0.0536,0.0551,0.0572,0.0585,0.0598,0.0573,0.0579,0.0533,0.0498,0.0479,0.0434,0.039,0.0343,0.0354,0.035,0.0302,0.0236,0.0204,0.0191,0.0321,0.032,0.032,0.02,0,0.0482,0.0537,0.0544,0.0597,0.0631,0.0626,0.0646,0.0653,0.0648,0.0645,0.0597,0.0582,0.0533,0.0516,0.0467,0.037,0.0325,0.0377,0.0227,0.0222,0.0189,0.0182,0.0317,0.0194,0.0192,0.0191,0.019,0,0.051,0.0551,0.0615,0.0666,0.068,0.0704,0.0736,0.0751,0.074,0.0731,0.0702,0.0663,0.0596,0.0557,0.0405,0.0442,0.0352,0.0275,0.0268,0.0213,0.0175,0.0171,0.0175,0.0176,0.0177,0.0178,0.0179,0,0.0533,0.0597,0.0656,0.0673,0.0724,0.0752,0.0774,0.0781,0.0802,0.0784,0.0783,0.0706,0.0662,0.0544,0.0389,0.0397,0.0217,0.0203,0.009,0.0086,0.0126,0.0128,0.0107,0.0107,0.0107,0.0107,0.0108,0,0.056,0.0607,0.0677,0.071,0.0783,0.0798,0.0856,0.0859,0.0867,0.0886,0.083,0.081,0.0657,0.0543,0.0404,0.0215,0.0224,0.0092,0.0053,0.0153,0.0159,0.012,0.0123,0.0103,0.0104,0.0105,0.0105,0,0.057,0.0613,0.0686,0.0763,0.0799,0.0846,0.0918,0.0948,0.0945,0.0964,0.0961,0.0876,0.0715,0.0551,0.034,0.023,0.0055,-0.0009,0.0107,0.0077,-0.0046,-0.0038,-0.0148,-0.015,-0.0152,-0.0153,-0.0154,0,0.0584,0.0627,0.073,0.0779,0.0821,0.0901,0.0955,0.0987,0.1013,0.0996,0.0997,0.0874,0.0792,0.0473,0.0293,0.0022,-0.001,-0.0094,-0.0065,-0.0046,-0.0073,-0.0062,-0.0052,-0.0157,-0.0158,-0.0158,-0.0159,0,0.0615,0.0646,0.0702,0.0804,0.0879,0.0965,0.1038,0.1065,0.1086,0.1089,0.1016,0.0871,0.0688,0.0459,0.0247,0.0058,-0.0039,-0.0114,-0.0111,-0.0084,-0.0059,-0.0082,-0.007,-0.0165,-0.0164,-0.0164,-0.0163,0,0.0629,0.0664,0.0734,0.0817,0.0911,0.0992,0.104,0.1068,0.1096,0.1075,0.1045,0.0865,0.0766,0.0475,0.0278,0.0085,0.0041,-0.0007,-0.001,-0.0006,0.0071,0.0126,0.0039,0,0,0,0,0,0.0636,0.0672,0.0748,0.0832,0.0918,0.0981,0.1075,0.1109,0.114,0.1092,0.107,0.09,0.0611,0.0489,0.0288,0.0234,0.0002,-0.0008,-0.0055,-0.02,-0.0193,-0.013,0,0,0,0,0,0,0.0637,0.0702,0.0736,0.0827,0.0886,0.099,0.1056,0.1085,0.1057,0.1056,0.0903,0.0842,0.0557,0.0715,0.0277,0.0221,0.0163,-0.0139,-0.0143,-0.0205,-0.0198,-0.0192,-0.0125,0,0,0,0,0]}]]